Погода в Ямусукро

Кот-д’Ивуар     6°48′35″N   5°15′02″W
темп.,
°C
ветер,
м/с
пор.,
м/с
влажн.,
%
обл.,
%
осадки,
мм/ч
давл.,
гПа
погр.,
м
1 августа, вс
вс100:00+22ююз2109797 4.9 1017467
03:00+21ююз2899100 0.3 1016500
06:00+22ююз1798100 1.1 1017447
09:00+22ююз169664 0.2 1018371
12:00+25юз248589 1.9 1017751
15:00+27юз247832 2.1 1014856
18:00+24ююз249114 4.0 1015154
21:00+22ююз119611 0.7 101724
2 августа, пн
пн200:00+21ююз139819 0.7 1017102
03:00+20юз179927 0.0 1016275
06:00+20юз159927 0.0 1017174
09:00+24зюз258431 0.0 1018552
12:00+29юз235879 0.1 10161526
15:00+28ю236292 0.1 1014899
18:00+26ююв247414 0.1 1014117
21:00+23ю2286100 0.0 101638
3 августа, вт
вт300:00+21ююз129386 0.0 101641
03:00+20юз279894 0.0 1014302
06:00+20ююз1699100 0.0 1016260
09:00+23юз3580100 0.0 1018754
12:00+27юз236598 0.1 10171237
15:00+28ююз236218 0.1 10141012
18:00+26зюз26775 0.2 1014274
21:00+23зюз1184100 0.0 101615
4 августа, ср
ср400:00+22ююз2392100 0.0 101775
03:00+20ююз1197100 0.0 101545
06:00+20юз119797 0.0 101748
09:00+24юз357642 0.0 1018626
12:00+29юз235888 0.0 10161518
15:00+27ююз247129 0.4 1014564
18:00+26ююз257753 0.5 1015141
21:00+24ююз288468 0.1 1018369
5 августа, чт
чт500:00+21ююз289416 0.1 1018353
03:00+20юз159769 0.0 1017205
06:00+20ююз149683 0.0 1018173
09:00+22ююз2582100 0.0 1020381
12:00+28ююз235867 0.0 10181208
15:00+28юз2359100 0.0 10151299
18:00+25ю267792 0.1 1015206
21:00+23ю277929 0.0 1017224